Weather in Kajaran

Armenia     39˚09′04″N   46˚09′23″E
temp.,
°C
wind,
m/s
gust,
m/s
humid.,
%
clouds,
%
prec.,
mm/h
press.,
hPa
HPBL,
m
27 november, fri
fri2701:00−5˚se0195100 0.1 102342
04:00−5˚wsw018574 0.1 102423
07:00−6˚ne01780 0.0 102721
10:00−3˚e11645 0.0 1029275
13:00e32610 0.0 1029601
16:00−2˚e227826 0.0 1028377
19:00−4˚sse119474 0.0 103258
22:00−4˚sw018349 0.0 103321
28 november, sat
sat2801:00−4˚wsw11660 0.0 103321
04:00−4˚wsw115713 0.0 103321
07:00−4˚wsw114580 0.0 103221
10:00ese113558 0.0 1032130
13:00+2˚e215083 0.0 1029319
16:00ese217281 0.0 1028178
19:00−3˚nw0084100 0.0 102921
22:00−3˚wnw018068 0.0 102921
29 november, sun
sun2901:00−2˚wnw007768 0.0 102921
04:00−3˚nnw117984 0.0 102821
07:00−3˚nw1182100 0.0 102721
10:00−1˚ne1173100 0.0 1027136
13:00−1˚ene2287100 0.4 1025194
16:00−1˚ene2296100 1.2 1024132
19:00−2˚ene1198100 1.3 102577
22:00−3˚nne1197100 3.3 102680
30 november, mon
mon3001:00−3˚ne1198100 0.8 102556
04:00−4˚sse0197100 1.3 102525
07:00−4˚sw0195100 0.3 102422
10:00−2˚ese119297 0.3 1024136
13:00−1˚ese129691 0.1 1022189
16:00−1˚ese129487 0.1 1021180
19:00−3˚sw118957 0.0 102242
22:00−3˚wsw118448 0.0 102347
1 december, tue
tue101:00−3˚wsw1284100 0.0 102335
04:00−4˚wsw2284100 0.0 102327
07:00−4˚wsw2284100 0.0 102325
10:00−1˚sw128199 0.0 1024128
13:00+1˚sse127917 0.0 1022331
16:00se12839 0.0 1021220
19:00−3˚wsw22780 0.0 102342
22:00−3˚wsw22700 0.0 102444